GFSFLT1_925_thetae_003.txt.gz
Theta_e
326 325 324 324 324 324 323 323 324 326 325 326 326 321 316 322 324 325 327 326 324 324 324 323 322 321 321 321 321 321 320 321 321
326 325 325 326 326 325 323 323 323 325 324 325 325 316 316 322 323 325 325 324 323 323 321 321 322 320 320 319 319 319 318 318 318
325 327 327 327 326 324 322 321 323 324 324 324 322 315 315 321 321 323 325 322 322 322 320 320 321 321 319 318 317 318 317 316 316
326 325 328 328 324 322 318 318 319 322 324 323 321 314 313 321 320 320 322 322 321 321 318 318 319 319 320 317 316 316 316 316 316
324 323 326 326 322 318 313 316 320 322 321 320 317 313 310 319 320 320 322 321 320 319 316 314 316 317 316 316 315 314 315 315 315
326 325 325 322 318 316 313 316 316 317 315 313 314 311 315 317 320 321 320 319 320 315 311 309 311 315 313 313 314 315 315 314 315
325 326 324 320 317 314 312 314 312 311 314 317 311 313 315 313 317 320 320 316 322 320 317 313 311 312 314 315 316 316 316 316 315
325 324 324 322 321 321 317 315 314 314 315 313 317 315 314 311 312 317 318 313 320 322 321 318 316 315 315 316 316 317 317 317 317
323 324 323 321 322 320 320 318 318 315 313 312 312 312 312 311 308 312 314 311 311 320 321 320 317 316 317 317 317 317 318 318 318
322 322 322 321 321 320 319 318 318 319 316 313 311 310 310 311 311 309 309 308 306 307 315 318 318 316 317 318 318 318 318 319 319
322 322 322 322 322 322 321 320 319 320 320 315 313 311 310 310 310 311 311 310 308 304 305 313 316 317 317 318 318 318 318 318 319
324 322 322 323 323 323 322 322 320 320 321 318 314 313 312 311 310 310 310 310 310 309 307 308 313 315 316 317 317 318 318 318 318
326 324 322 323 323 323 323 322 322 321 320 320 319 317 314 313 312 311 311 310 309 310 309 308 308 313 315 316 316 317 317 317 317
326 327 325 323 324 324 323 323 323 323 322 321 320 320 319 318 316 314 313 312 311 310 310 310 310 310 310 314 316 316 317 316 317
327 327 327 326 324 325 325 324 323 323 323 322 320 320 319 319 319 319 318 316 313 312 312 311 311 311 311 311 315 316 317 317 317
329 328 328 329 327 325 326 325 325 325 324 323 323 323 321 321 321 321 320 319 316 313 313 312 313 312 312 311 310 313 316 318 318
331 330 329 330 330 329 327 326 327 326 325 324 323 323 322 321 322 322 321 320 319 317 315 314 313 312 312 312 314 315 315 317 319
331 331 331 331 331 331 330 329 328 327 326 325 324 323 323 321 320 319 317 316 315 314 313 314 316 316 314 315 315 317 318 318 317
331 331 332 332 332 332 332 331 329 328 327 327 324 323 322 323 323 319 318 316 316 317 317 317 318 318 316 316 316 317 318 317 315
332 332 332 333 333 333 332 332 331 330 329 328 326 324 323 323 323 323 321 320 319 318 318 318 319 319 318 318 317 318 318 316 315

GFSFLT1_925_thetae_006.txt.gz
Theta_e
326 324 323 324 324 324 323 323 324 325 325 325 325 314 320 322 324 326 326 323 324 324 323 322 322 321 321 320 321 319 320 319 318
326 325 324 326 325 324 323 323 324 325 324 326 324 314 320 322 324 325 325 321 324 322 321 322 321 320 319 318 320 318 318 317 317
326 325 326 327 327 325 323 322 323 324 324 324 323 313 319 321 322 324 325 322 323 322 320 321 321 320 319 317 317 317 317 316 316
325 324 326 328 325 322 318 318 320 323 324 323 322 313 317 320 320 322 321 317 321 321 318 318 319 319 319 316 315 315 316 316 316
325 322 325 326 324 321 315 315 318 322 324 323 317 312 313 320 320 320 322 318 320 319 317 315 315 316 315 315 315 314 314 315 315
325 323 326 325 321 318 314 315 318 319 318 316 313 311 309 317 320 320 321 317 320 318 314 309 309 312 312 311 313 316 316 315 315
326 326 325 324 321 317 313 313 313 313 313 313 312 310 312 314 316 319 320 318 320 320 318 311 309 312 313 314 316 317 317 317 317
325 325 325 323 318 317 316 310 309 310 314 315 318 315 313 314 312 316 319 319 316 323 322 320 317 317 316 317 317 318 318 318 318
324 324 324 324 321 322 321 319 318 315 314 314 313 315 315 314 311 310 314 316 315 318 323 322 321 319 318 318 318 319 319 319 319
323 323 324 323 321 322 320 320 318 318 317 314 312 311 311 311 312 310 308 311 311 311 318 320 321 321 319 318 319 319 319 320 320
324 322 322 322 321 321 321 319 318 318 319 319 315 313 311 310 310 311 311 309 309 309 309 315 317 318 319 319 319 319 320 320 320
325 323 321 322 322 322 322 321 320 319 319 320 320 315 313 312 311 310 310 310 310 310 310 312 314 315 317 318 319 319 319 319 319
325 325 322 322 322 322 323 323 322 321 320 320 320 319 315 313 313 312 311 310 310 310 310 310 311 314 316 317 318 319 318 318 318
326 325 325 323 322 323 323 323 323 322 322 321 321 320 320 318 316 314 313 312 311 311 310 310 309 309 310 315 317 318 318 318 318
327 326 326 326 323 323 324 324 323 322 322 322 322 322 320 319 319 319 318 317 315 313 312 311 311 310 310 311 315 316 318 318 318
328 327 327 327 326 324 324 324 324 324 323 323 323 323 322 321 320 319 319 319 319 318 317 315 313 312 312 311 311 316 317 318 318
330 329 328 328 328 328 325 325 325 325 324 324 322 322 322 322 322 321 320 320 320 320 319 318 314 313 312 313 311 311 315 318 319
332 331 330 329 328 328 329 326 325 325 326 325 324 322 322 316 320 320 320 321 321 321 320 318 317 315 314 312 313 314 315 316 320
332 332 332 331 330 330 330 330 328 327 326 326 325 324 322 321 320 320 320 320 319 316 315 314 314 313 314 317 318 316 315 316 318
332 332 332 331 331 331 331 331 330 330 328 327 326 325 324 323 322 323 321 319 319 317 315 316 317 317 317 318 319 317 316 316 318

GFSFLT1_925_thetae_012.txt.gz
Theta_e
326 324 324 324 324 324 325 325 324 325 324 325 324 315 320 322 325 327 327 319 325 324 323 322 322 321 322 321 320 320 319 319 319
326 325 324 325 324 324 323 324 324 323 324 325 324 316 321 322 324 326 325 324 325 324 323 322 321 320 319 321 319 318 317 317 317
326 325 325 326 326 326 324 322 323 325 324 325 326 315 320 321 322 325 324 322 324 323 322 322 321 320 318 319 319 318 317 317 316
327 325 327 328 328 326 325 322 322 324 324 324 325 315 318 320 321 325 323 323 323 323 321 321 321 320 319 317 317 317 317 317 316
324 325 323 328 329 326 324 322 320 321 324 324 323 318 315 318 319 323 323 322 322 323 320 320 320 320 320 318 316 315 315 316 316
323 323 323 322 323 324 323 321 319 318 320 323 324 317 312 316 319 319 319 320 323 323 321 318 318 318 318 317 317 317 317 317 316
323 321 324 323 322 323 323 321 317 315 317 318 320 319 313 311 318 319 318 321 325 324 322 320 317 317 317 317 317 317 318 318 318
322 322 324 325 324 324 323 321 316 314 312 313 315 316 312 310 311 317 317 318 325 325 323 321 319 317 317 317 318 318 318 319 319
322 323 324 325 325 324 323 319 316 314 311 310 312 312 313 314 310 311 314 315 325 324 324 323 322 321 320 319 319 319 320 320 320
324 324 324 325 324 323 323 321 320 318 317 311 309 312 314 314 316 311 313 313 314 321 323 324 324 324 324 323 322 321 321 321 321
325 325 324 324 323 323 323 323 320 320 319 318 317 315 314 314 313 313 314 314 312 311 318 321 323 324 324 325 325 324 322 322 322
326 325 325 324 323 322 322 323 321 320 320 319 318 317 317 317 316 313 311 311 311 311 315 317 318 320 322 323 324 324 324 324 322
326 325 325 324 324 323 322 322 321 320 320 320 319 318 317 317 318 319 318 315 312 311 310 310 311 315 316 319 321 321 322 323 324
325 325 325 325 324 324 323 321 321 320 321 321 321 321 320 319 319 319 319 319 316 313 312 312 311 310 311 315 316 318 320 321 321
327 326 326 325 325 325 324 323 321 321 321 320 321 321 321 321 321 321 320 319 319 319 318 317 315 313 312 311 314 315 316 318 319
329 328 328 328 326 326 325 324 323 321 321 320 320 320 321 321 320 320 320 321 320 320 320 319 318 317 315 315 313 313 315 317 317
333 332 331 330 328 327 325 324 323 321 322 321 321 323 323 323 322 322 321 320 319 318 319 319 318 317 316 317 318 317 316 318 319
331 332 332 331 330 328 327 325 324 323 324 322 322 324 325 316 321 321 321 321 321 321 320 319 320 319 318 318 317 318 318 318 320
324 325 327 329 330 328 328 327 326 324 324 325 323 323 324 325 326 324 321 321 321 320 320 319 319 319 319 318 319 319 320 320 319
314 314 315 317 325 328 328 327 327 326 326 326 326 324 322 323 324 326 324 323 323 321 321 321 321 319 319 318 319 320 320 318 317

GFSFLT1_925_thetae_015.txt.gz
Theta_e
327 325 325 325 324 324 326 324 325 325 325 326 326 322 321 321 323 326 326 326 322 325 323 322 322 322 322 321 320 320 319 319 320
327 325 324 325 324 324 323 325 325 324 324 324 325 323 320 321 322 326 327 321 326 325 323 323 322 321 321 321 319 318 318 318 318
326 327 325 326 325 325 324 323 324 325 324 325 326 325 320 319 321 325 325 324 326 324 324 323 322 321 319 321 320 318 318 317 316
326 327 326 327 328 328 327 325 323 323 324 325 324 326 318 318 320 322 325 324 326 324 323 322 323 322 320 319 319 318 318 317 316
326 326 325 327 329 329 327 326 324 322 323 325 325 323 320 316 318 319 324 323 325 325 324 322 322 322 321 319 318 318 318 318 318
323 322 322 323 327 328 328 326 325 321 320 321 324 324 320 315 316 318 320 323 324 325 323 323 321 321 321 321 319 318 317 317 317
322 322 321 323 323 324 326 327 325 322 318 316 317 321 322 317 314 315 318 318 323 325 325 325 322 320 320 321 320 319 319 319 319
324 322 322 321 324 324 323 324 324 322 317 314 314 316 318 317 314 311 314 318 320 325 326 326 324 322 320 320 320 319 319 319 320
324 323 322 322 323 324 324 324 323 321 318 315 312 310 312 314 313 310 310 313 317 321 325 327 326 324 322 320 320 320 320 320 321
323 324 323 323 323 323 324 324 323 322 319 318 316 312 309 310 311 312 313 312 310 314 321 326 327 326 325 324 323 321 321 321 322
324 325 325 324 324 324 324 323 323 322 322 320 319 318 316 314 311 313 313 313 314 311 317 320 323 324 326 326 326 326 324 323 323
326 326 326 326 325 324 323 323 322 322 322 322 320 320 319 319 317 317 316 316 314 312 312 318 319 320 321 323 325 326 326 326 326
326 326 326 325 326 325 324 323 322 321 321 321 321 320 320 320 319 318 317 316 317 318 317 313 312 315 317 317 319 321 324 325 325
325 326 325 325 325 324 324 324 323 321 320 320 320 320 320 321 321 321 321 320 319 318 318 319 319 315 313 315 317 317 318 320 323
325 325 325 325 325 324 324 324 323 322 321 320 319 319 320 320 320 320 320 320 320 321 321 319 318 319 318 315 317 317 317 318 319
328 328 328 328 326 327 325 324 323 322 322 319 320 320 320 321 320 321 320 320 320 319 319 318 318 317 318 319 319 318 318 318 319
330 329 329 329 328 327 326 325 323 322 322 322 322 323 324 323 323 322 321 322 322 320 320 319 318 318 317 317 318 319 319 320 320
317 317 318 321 325 326 326 325 324 323 324 323 322 324 326 320 324 323 322 322 322 322 323 322 321 320 319 319 318 318 318 318 320
313 312 313 313 314 318 324 326 325 324 323 324 324 322 324 326 328 325 324 322 321 322 322 322 322 322 321 321 321 321 320 320 319
307 306 306 306 307 309 310 313 322 325 325 325 326 326 323 322 323 326 325 325 323 322 321 321 321 321 321 321 322 323 321 321 320

GFSFLT1_925_thetae_018.txt.gz
Theta_e
327 327 325 325 325 324 325 327 325 325 326 326 327 327 323 320 321 325 324 325 325 325 324 323 323 322 322 322 320 321 320 320 320
328 326 324 325 325 324 324 324 326 325 325 325 325 326 323 320 321 323 325 326 321 326 324 323 323 321 321 322 320 320 319 319 319
327 327 327 325 326 325 325 324 323 325 325 325 325 326 325 321 320 321 325 326 323 327 325 324 323 322 321 321 321 320 319 318 318
328 326 327 326 327 327 328 327 326 324 324 324 325 325 325 324 319 319 321 325 324 327 325 324 324 323 322 320 321 321 320 319 318
326 327 327 327 327 329 329 328 327 326 324 323 324 324 323 323 320 318 319 322 324 327 327 325 324 323 324 322 320 320 320 320 319
322 322 323 323 323 327 328 328 328 326 324 320 319 320 323 323 320 317 317 318 323 326 327 326 325 323 323 323 323 320 319 319 319
325 324 322 322 322 323 326 327 327 326 325 322 318 316 316 320 320 318 315 316 320 324 326 327 325 325 323 323 323 323 321 320 319
325 325 324 322 321 321 323 324 324 324 323 322 320 315 314 314 315 317 316 314 318 322 323 326 327 327 326 323 322 322 322 321 321
325 324 323 323 322 322 322 323 323 324 323 322 320 317 315 312 310 310 312 314 314 318 322 323 325 327 327 327 324 322 321 322 321
323 323 323 323 323 323 323 323 323 323 323 322 322 320 319 317 316 311 308 310 311 313 317 319 322 324 326 328 327 325 323 322 322
323 325 324 324 325 325 324 324 324 323 323 322 322 322 321 320 319 318 317 315 313 312 315 319 318 319 322 326 327 327 326 324 323
324 325 326 326 325 325 325 325 324 323 323 322 322 322 322 321 321 320 320 319 318 317 316 318 319 319 319 320 323 325 326 326 326
324 324 325 325 325 325 324 324 323 323 322 322 322 322 322 322 321 321 320 320 320 320 320 318 317 319 319 319 319 321 322 324 325
324 324 324 324 324 324 323 323 322 320 320 320 321 320 321 322 322 322 322 323 323 322 322 322 321 320 319 320 321 320 320 321 321
323 324 325 325 325 326 325 324 323 322 322 321 320 320 320 321 321 321 321 321 321 321 321 321 319 321 321 321 321 322 322 321 320
328 328 327 326 326 326 325 323 322 322 321 319 321 321 322 323 323 324 322 322 322 321 321 321 321 319 319 319 319 320 322 322 322
314 313 314 315 317 319 322 324 323 323 323 321 322 324 325 325 325 324 324 323 322 321 322 321 321 322 321 321 321 320 320 322 323
309 309 308 308 308 309 310 316 321 322 323 324 322 325 326 325 325 325 324 323 322 322 322 322 321 321 320 321 321 320 320 320 321
305 305 305 305 305 305 305 306 308 312 319 322 323 322 322 323 324 324 324 325 324 322 322 322 322 321 321 321 322 322 321 321 321
303 303 303 303 303 303 303 303 304 306 309 313 316 317 318 320 322 322 321 320 322 323 323 321 320 321 322 320 321 321 322 322 322